FENGYUN 1C DEB, 30506

Orbit data source: Space-Track

FENGYUN 1C DEB, 30506 is space debris in SSO originally from a launch on Mon, 10 May 1999 UTC launched from the Taiyaun Space Center, China (TSC). Fengyun 1C debris stems from the Chinese weather satellite Fengyun-1C, which was intentionally destroyed by a Chinese anti-satellite missile in 2007. This event dramatically increased the amount of space debris, with thousands of trackable fragments posing hazards to satellites and human spaceflight. The Fengyun 1C debris cloud has become a focal point in discussions about space sustainability and the need for international regulations to prevent the creation of new debris.

Loading next visibility...
Identifier
30506, 1999-025AHU
Orbit
SSO
Country
Flag of CNCN / PRC
Related business
Manufacturer
Unknown
Mission
Spacecraft
Bus & Motor
Unknown
Mass
Unknown
Launch date (UTC)
1999-05-10 (27 years ago)
Launch vehicle
Unknown
Launch site
Taiyaun Space Center, China (TSC)
Object type
Payload
Rocket body
Debris
Shape & HBR
Unknown shape, 0.1 m
Radar Cross Section
Medium (>0.1 m² and <1 m²)

Expand to show TLE details & history
Last TLE update: 12 hours ago

TLE from 12 hours ago
0 FENGYUN 1C DEB
1 30506U 99025AHU 26175.95444031  .00000451  00000-0  27925-3 0  9998
2 30506  98.7560 180.5175 0070773 157.5990 232.3874 14.08853197995567
Epoch: 2026-06-24T22:54Z
TLE epoch observation values (Epoch: 2026-06-24T22:54:23.642Z)
Latitude
29.0197°
Longitude
-81.06111°
Altitude
898.391 km
Speed
7.389 km/s
True Right ascension
11h 42m 33s
True Declination
28° 52' 37"
Sunlit
Object was in daylight at epoch
Visualization orbit readout
Latitude
Unknown
Longitude
Unknown
Altitude
Unknown
Speed
Unknown
Apparent Right ascension
Unknown
Apparent Declination
Unknown
Sunlit
N/A
Visualization observer readout
Local Sidereal Time
22:32:56
Azimuth
Unknown
Elevation
Unknown
Doppler factor
Unknown
Orbital elements
Apogee altitude
911.704 km
Perigee altitude
809.244 km
Semi-major axis
7,238.611 km
Eccentricity
0.00708
Inclination
98.756°
RAAN
180.5175°
Arg. of periapsis
157.599°
True anomaly
231.74843°
Mean anomaly
232.3874°
Eccentric anomaly
232.06757°
Mean motion
3.5242 °/min
Orbital period
102.15 mins
BSTAR
0.00027925
Loading maneuver chart data...
Computing Atmospheric mass density...

Documentation

Showing up to 5 results
|